Flag for Brazil Weather past 2 weeks in Sorocaba, São Paulo, Brazil

Now
90 °F

Sunny.


Feels Like: 86 °F
Forecast: 55 / 92 °F
Wind: 6 mph from Northwest

Location: Campinas Aeroporto

Current Time: Aug 31, 2015 at 3:53:35 PM

Latest Report: Aug 31, 2015 at 3:00 PM


Visibility: 10 mi

Pressure: 30.09 "Hg (28.13 "Hg at 602m altitude)

Humidity: 24%

Dew point: 48 °F

Location of SorocabaLocation

Historic Weather in Sorocaba — Graph

°F

Sorocaba temperature yesterday

Maximum temperature yesterday: 88 °F (at 3:00 PM)
Minimum temperature yesterday: 61 °F (at 6:00 AM)
Average temperature yesterday: 74 °F

Past Weeks' High & Low Weather Summary

 TemperatureHumidityPressure
High90 °F (Aug 31, 2:00 PM)100% (Aug 23, 7:00 AM)30.27 "Hg (Aug 23, 7:00 AM)
Low54 °F (Aug 29, 6:00 AM)15% (Aug 23, 4:00 PM)29.95 "Hg (Aug 19, 2:00 PM)
Average68 °F63%30.11 "Hg
* Reported Aug 16 3:00 PM — Aug 31 3:00 PM, Sorocaba, Weather by CustomWeather, © 2015

Note: Actual official high and low records may vary slightly from our data, if they occured in-between our weather recording intervals... More about our weather records

Advertising

Sorocaba weather history for previous 24 hours

 ConditionsComfort  
Time TempWeatherWind HumidityBarometerVisibility
3:00 PM
Mon, Aug 31
90 °FSunny.6 mph24%30.09 "Hg10 mi
2:00 PM90 °FSunny.7 mph26%30.09 "Hg10 mi
1:00 PM88 °FSunny.5 mph27%30.15 "Hg10 mi
12:00 PM84 °FSunny.7 mph33%30.15 "Hg10 mi
11:00 AM84 °FSunny.9 mph33%30.18 "Hg10 mi
10:00 AM81 °FSunny.6 mph37%30.18 "Hg10 mi
9:00 AM73 °FSunny.7 mph57%30.18 "Hg10 mi
8:00 AM68 °FSunny.7 mph64%30.18 "Hg10 mi
7:00 AM64 °FSunny.8 mph68%30.15 "Hg10 mi
6:00 AM63 °FSunny.8 mph73%30.12 "Hg10 mi
5:00 AM63 °FClear.8 mph77%30.12 "Hg10 mi
4:00 AM63 °FClear.9 mph77%30.12 "Hg10 mi
3:00 AM64 °FClear.3 mph73%30.12 "Hg10 mi
2:00 AM66 °FClear.9 mph68%30.12 "Hg10 mi
1:00 AM68 °FClear.12 mph60%30.12 "Hg10 mi
12:00 AM68 °FClear.9 mph60%30.15 "Hg10 mi
11:00 PM
Sun, Aug 30
72 °FClear.10 mph50%30.15 "Hg10 mi
10:00 PM72 °FClear.9 mph53%30.15 "Hg10 mi
9:00 PM73 °FClear.5 mph44%30.12 "Hg10 mi
8:00 PM82 °FClear.6 mph28%30.12 "Hg10 mi
6:00 PM84 °FClear.6 mph27%30.09 "Hg10 mi
5:00 PM88 °FClear.5 mph24%30.09 "Hg10 mi
4:00 PM88 °FSunny.3 mph22%30.09 "Hg10 mi
3:00 PM88 °FSunny.6 mph24%30.12 "Hg10 mi
Weather by CustomWeather, © 2015

See weather overviewHow to use our weather pages